STARLINK-35628, 66123

Orbit data source: Space-Track

STARLINK-35628, 66123 is a payload satellite owned by SpaceX/Seattle (US) in LEO that was launched on Wed, 22 Oct 2025 UTC via an FALCON 9 launch vehicle from the Air Force Western Test Range (AFWTR). Payload-class satellites include a variety of spacecraft equipped with specific instruments for various scientific and technological missions. These include communications satellites like Starlink; space stations such as the ISS; scientific satellites like the Hubble; Earth observation satellites from companies like Planet Labs, Umbra, and HawkEye 360; GPS; miniature CubeSats for education and research; and military/defense satellites.

Loading next visibility...
Identifier
66123, 2025-237K
Orbit
LEO
Country
Flag of USUS
Related business
Manufacturer
SpaceX/Seattle
Mission
Operational Commercial Communications
Bus & Motor
STARLINK V2MO, Unknown motor
Mass
575 kg wet, ~530 kg dry
Launch date (UTC)
2025-10-22 (4 months ago)
Launch vehicle
FALCON 9
Launch site
Air Force Western Test Range (AFWTR)
Object type
Payload
Rocket body
Debris
Shape & HBR
Box + 2 Pan, 17.7 m
Radar Cross Section
36.964 m²

Expand to show TLE details & history
Last TLE update: 18 hours ago

TLE from 18 hours ago
0 STARLINK-35628
1 66123U 25237K   26061.31217915  .00024954  00000-0  85190-3 0  9991
2 66123  53.1585  73.7038 0001130  87.3605 272.7525 15.30197702 21489
Epoch: 2026-03-02T07:29Z
TLE epoch observation values (Epoch: 2026-03-02T07:29:32.278Z)
Latitude
-0.00003°
Longitude
161.21188°
Altitude
476.084 km
Speed
7.629 km/s
True Right ascension
04h 54m 48s
True Declination
0° 00' 00"
Sunlit
Object was in daylight at epoch
Visualization orbit readout
Latitude
Unknown
Longitude
Unknown
Altitude
Unknown
Speed
Unknown
Apparent Right ascension
Unknown
Apparent Declination
Unknown
Sunlit
N/A
Visualization observer readout
Local Sidereal Time
05:26:20
Azimuth
Unknown
Elevation
Unknown
Doppler factor
Unknown
Orbital elements
Apogee altitude
476.253 km
Perigee altitude
474.704 km
Semi-major axis
6,853.616 km
Eccentricity
0.00011
Inclination
53.1585°
RAAN
73.7038°
Arg. of periapsis
87.3605°
True anomaly
272.73957°
Mean anomaly
272.7525°
Eccentric anomaly
272.74603°
Mean motion
3.82528 °/min
Orbital period
94.11 mins
BSTAR
0.0008519
Loading maneuver chart data...
Computing Atmospheric mass density...
Loading historical data...
Loading historical data...
Loading historical data...
Loading historical data...
Loading historical data...
Loading historical data...
Loading historical data...

Documentation

Showing up to 5 results
|